Starlink 4369

operational
NORAD ID: 53191 Int'l Des: 2022-084 Owner: SPXS Country: US Constellation: starlink
LEOCIRCULARRETROGRADESSO

About Starlink 4369

Description loading...

Live Position

Loading 3D Globe...

Upcoming Passes

Altitude History

Altitude vs Time

uPlot chart will show altitude changes over time

Two-Line Element Set

1 53191U 22084C 25299.13770601 .00000367 00000-0 33126-4 0 9992
2 53191 97.6032 358.4713 0002655 207.5735 152.5349 15.01261841179124
Epoch: Oct 26, 2025 • Age: 7 hours

Current Status

Altitude 564.5 km
Velocity 7.58 km/s
Sub-Earth Point -0.45°S, 13.92°W
Launch Date Jul 22, 2022
Age 3.2 years
Type internet

Technical Details

Classification Payload
Mass 297.00 kg
Dry Mass 275.00 kg
Total Mass 297.00 kg
Length 0.20 m
Diameter 2.80 m
Span 9.00 m
Shape Box + pan
Manufacturer SPXS
Bus Type Starlink
Phase Status In Orbit
Owner/State SPXS/US

Large Constellations

Loading constellations...